KLM69H EHAM-EFHK

Flight info

Callsign KLM69H
Flight time N/A
Altitude 37000
Route ANDIK N873 JUIST DCT DOSUR DCT RASMU DCT ROGMI DCT ALAMI DCT OKEVU DCT EVADI Y370 DIVAM
Aircraft B739/M-SDE2E3FGHIRWXY/LB1

Departure

Time 2026-05-07 15:23
Airport Amsterdam Airport Schiphol (EHAM)

Arrival

Time N/A
Airport Helsinki Vantaa Airport (EFHK)
Time Latitude Longitude Altitude Speed Heading
2026-05-07 14:38 52.30506 4.76807 -2 ft 0 kts 314°
2026-05-07 15:10 52.30492 4.76829 -2 ft 1 kts 314°
2026-05-07 15:10 52.30476 4.76857 -2 ft 4 kts 313°
2026-05-07 15:10 52.30459 4.76887 -2 ft 3 kts 312°
2026-05-07 15:10 52.30448 4.76917 -2 ft 4 kts 252°
2026-05-07 15:11 52.30461 4.76951 -2 ft 4 kts 227°
2026-05-07 15:11 52.30480 4.76970 -2 ft 4 kts 194°
2026-05-07 15:11 52.30505 4.76971 -2 ft 4 kts 156°
2026-05-07 15:11 52.30528 4.76948 -2 ft 4 kts 146°
2026-05-07 15:12 52.30532 4.76944 -2 ft 1 kts 148°
2026-05-07 15:14 52.30529 4.76946 -2 ft 2 kts 148°
2026-05-07 15:14 52.30506 4.76965 -2 ft 6 kts 163°
2026-05-07 15:15 52.30456 4.76931 -2 ft 11 kts 226°
2026-05-07 15:15 52.30406 4.76812 -2 ft 15 kts 239°
2026-05-07 15:15 52.30345 4.76652 -2 ft 18 kts 237°
2026-05-07 15:15 52.30270 4.76460 -2 ft 22 kts 239°
2026-05-07 15:16 52.30185 4.76236 -2 ft 25 kts 238°
2026-05-07 15:16 52.30089 4.75986 -2 ft 27 kts 238°
2026-05-07 15:16 52.29985 4.75715 -2 ft 29 kts 237°
2026-05-07 15:16 52.29881 4.75442 -2 ft 27 kts 237°
2026-05-07 15:17 52.29841 4.75223 -2 ft 20 kts 289°
2026-05-07 15:17 52.29922 4.75045 -2 ft 19 kts 311°
2026-05-07 15:17 52.30009 4.74884 -2 ft 19 kts 311°
2026-05-07 15:17 52.30099 4.74719 3 ft 19 kts 312°
2026-05-07 15:18 52.30186 4.74555 9 ft 20 kts 310°
2026-05-07 15:18 52.30280 4.74375 8 ft 22 kts 310°
2026-05-07 15:18 52.30417 4.74203 -2 ft 26 kts 355°
2026-05-07 15:18 52.30595 4.74208 -2 ft 25 kts
2026-05-07 15:19 52.30761 4.74221 -2 ft 23 kts
2026-05-07 15:19 52.30918 4.74238 -2 ft 22 kts
2026-05-07 15:19 52.31071 4.74255 -2 ft 22 kts
2026-05-07 15:19 52.31220 4.74266 -2 ft 21 kts
2026-05-07 15:20 52.31363 4.74293 -2 ft 20 kts 30°
2026-05-07 15:20 52.31395 4.74506 -2 ft 20 kts 86°
2026-05-07 15:20 52.31453 4.74672 -2 ft 18 kts
2026-05-07 15:20 52.31527 4.74666 -2 ft 9 kts 356°
2026-05-07 15:21 52.31560 4.74663 -2 ft 2 kts 356°
2026-05-07 15:21 52.31562 4.74662 -2 ft 0 kts 356°
2026-05-07 15:21 52.31590 4.74660 -2 ft 11 kts 359°
2026-05-07 15:21 52.31671 4.74781 -2 ft 23 kts 90°
2026-05-07 15:22 52.31675 4.74979 -4 ft 28 kts 88°
2026-05-07 15:22 52.31699 4.75666 -3 ft 92 kts 87°
2026-05-07 15:22 52.31745 4.77005 -4 ft 142 kts 86°
2026-05-07 15:22 52.31808 4.78765 303 ft 153 kts 85°
2026-05-07 15:23 52.31864 4.80517 803 ft 159 kts 83°
2026-05-07 15:23 52.31957 4.82364 1271 ft 165 kts 81°
2026-05-07 15:23 52.32075 4.84227 1787 ft 169 kts 82°
2026-05-07 15:23 52.32203 4.86260 2078 ft 191 kts 82°
2026-05-07 15:24 52.32352 4.88527 2313 ft 211 kts 82°
2026-05-07 15:24 52.32766 4.90913 2582 ft 230 kts 60°
2026-05-07 15:24 52.33717 4.93109 3083 ft 245 kts 53°
2026-05-07 15:24 52.34764 4.95400 3606 ft 258 kts 53°
2026-05-07 15:25 52.35845 4.97810 4248 ft 264 kts 54°
2026-05-07 15:25 52.36916 5.00250 5058 ft 266 kts 55°
2026-05-07 15:25 52.37995 5.02726 5791 ft 268 kts 55°
2026-05-07 15:25 52.39085 5.05231 6518 ft 272 kts 56°
2026-05-07 15:26 52.40191 5.07774 7167 ft 276 kts 56°
2026-05-07 15:26 52.41315 5.10359 7841 ft 280 kts 55°
2026-05-07 15:26 52.42597 5.12778 8494 ft 285 kts 36°
2026-05-07 15:26 52.44409 5.14107 9123 ft 289 kts 15°
2026-05-07 15:27 52.46334 5.14967 9833 ft 291 kts 14°
2026-05-07 15:27 52.48305 5.15809 10399 ft 298 kts 14°
2026-05-07 15:27 52.50385 5.16695 10572 ft 319 kts 13°
2026-05-07 15:27 52.52602 5.17649 10741 ft 339 kts 14°
2026-05-07 15:28 52.54975 5.18683 10890 ft 358 kts 14°
2026-05-07 15:28 52.57435 5.19766 11074 ft 374 kts 14°
2026-05-07 15:28 52.59955 5.20881 11436 ft 383 kts 14°
2026-05-07 15:28 52.62531 5.22026 11997 ft 386 kts 14°
2026-05-07 15:29 52.65139 5.23188 12568 ft 389 kts 15°
2026-05-07 15:29 52.67754 5.24354 13270 ft 390 kts 15°
2026-05-07 15:29 52.70390 5.25530 13814 ft 395 kts 14°
2026-05-07 15:29 52.73013 5.26933 14361 ft 398 kts 26°
2026-05-07 15:30 52.75235 5.29638 14948 ft 401 kts 46°
2026-05-07 15:30 52.77018 5.33211 15479 ft 405 kts 52°
2026-05-07 15:30 52.78744 5.36899 16041 ft 408 kts 52°
2026-05-07 15:30 52.80484 5.40642 16553 ft 412 kts 52°
2026-05-07 15:31 52.82229 5.44402 17165 ft 414 kts 52°
2026-05-07 15:31 52.83996 5.48205 17616 ft 419 kts 52°
2026-05-07 15:31 52.85779 5.52032 18236 ft 420 kts 52°
2026-05-07 15:31 52.87571 5.55879 18631 ft 426 kts 52°
2026-05-07 15:32 52.89384 5.59770 19166 ft 426 kts 52°
2026-05-07 15:32 52.91204 5.63680 19569 ft 431 kts 52°
2026-05-07 15:32 52.93030 5.67607 20148 ft 430 kts 52°
2026-05-07 15:32 52.94870 5.71569 20507 ft 436 kts 52°
2026-05-07 15:33 52.96733 5.75588 21006 ft 438 kts 52°
2026-05-07 15:33 52.98584 5.79589 21396 ft 442 kts 52°
2026-05-07 15:33 53.00458 5.83645 21883 ft 443 kts 52°
2026-05-07 15:33 53.02338 5.87721 22260 ft 448 kts 52°
2026-05-07 15:34 53.04236 5.91844 22772 ft 448 kts 52°
2026-05-07 15:34 53.06136 5.95977 23131 ft 452 kts 52°
2026-05-07 15:34 53.08046 6.00139 23605 ft 454 kts 52°
2026-05-07 15:34 53.09967 6.04329 23928 ft 457 kts 53°
2026-05-07 15:35 53.11888 6.08523 24530 ft 452 kts 53°
2026-05-07 15:35 53.13787 6.12662 24962 ft 451 kts 53°
2026-05-07 15:35 53.15706 6.16846 25115 ft 458 kts 53°
2026-05-07 15:35 53.17645 6.21082 25334 ft 462 kts 53°
2026-05-07 15:36 53.19596 6.25352 25727 ft 462 kts 53°
2026-05-07 15:36 53.21541 6.29617 26136 ft 462 kts 53°
2026-05-07 15:36 53.23491 6.33900 26478 ft 464 kts 53°
2026-05-07 15:36 53.25442 6.38196 26785 ft 466 kts 53°
2026-05-07 15:37 53.27400 6.42514 27152 ft 466 kts 53°
2026-05-07 15:37 53.29353 6.46826 27685 ft 463 kts 53°
2026-05-07 15:37 53.31285 6.51100 28198 ft 460 kts 53°
2026-05-07 15:37 53.33209 6.55362 28708 ft 458 kts 53°
2026-05-07 15:38 53.35179 6.59543 29164 ft 457 kts 49°
2026-05-07 15:38 53.37440 6.63261 29684 ft 455 kts 43°
2026-05-07 15:38 53.39811 6.66786 30169 ft 453 kts 42°
2026-05-07 15:38 53.42169 6.70265 30566 ft 452 kts 42°
2026-05-07 15:39 53.44527 6.73798 30692 ft 458 kts 42°
2026-05-07 15:39 53.46896 6.77414 30778 ft 463 kts 43°
2026-05-07 15:39 53.49275 6.81080 31069 ft 464 kts 43°
2026-05-07 15:39 53.51630 6.84732 31538 ft 459 kts 43°
2026-05-07 15:40 53.53966 6.88363 31990 ft 457 kts 43°
2026-05-07 15:40 53.56276 6.91956 32737 ft 445 kts 44°
2026-05-07 15:40 53.58493 6.95513 33369 ft 438 kts 45°
2026-05-07 15:40 53.60663 6.99130 33535 ft 441 kts 46°
2026-05-07 15:41 53.62833 7.02811 33697 ft 444 kts 46°
2026-05-07 15:41 53.65008 7.06518 33936 ft 445 kts 46°
2026-05-07 15:41 53.67178 7.10214 34315 ft 441 kts 46°
2026-05-07 15:41 53.69343 7.13893 34481 ft 443 kts 46°
2026-05-07 15:42 53.71520 7.17589 34677 ft 444 kts 46°
2026-05-07 15:42 53.73703 7.21293 34824 ft 446 kts 46°
2026-05-07 15:42 53.75889 7.25000 35064 ft 445 kts 46°
2026-05-07 15:42 53.78076 7.28711 35197 ft 447 kts 46°
2026-05-07 15:43 53.80274 7.32447 35397 ft 447 kts 46°
2026-05-07 15:43 53.82465 7.36179 35580 ft 448 kts 45°
2026-05-07 15:43 53.84664 7.39928 35793 ft 448 kts 46°
2026-05-07 15:43 53.86861 7.43683 35899 ft 450 kts 45°
2026-05-07 15:44 53.89068 7.47459 36051 ft 452 kts 46°
2026-05-07 15:44 53.91284 7.51259 36169 ft 453 kts 45°
2026-05-07 15:44 53.93500 7.55063 36345 ft 454 kts 46°
2026-05-07 15:44 53.95723 7.58886 36474 ft 455 kts 46°
2026-05-07 15:45 53.97949 7.62719 36615 ft 456 kts 46°
2026-05-07 15:45 54.00176 7.66562 36773 ft 457 kts 46°
2026-05-07 15:45 54.02409 7.70421 37000 ft 456 kts 46°
2026-05-07 15:45 54.04634 7.74272 37099 ft 457 kts 46°
2026-05-07 15:46 54.11345 7.85926 37097 ft 459 kts 46°
2026-05-07 15:47 54.15798 7.93690 37102 ft 457 kts 46°
2026-05-07 15:47 54.20234 8.01451 37099 ft 456 kts 46°
2026-05-07 15:48 54.24652 8.09204 37112 ft 455 kts 46°
2026-05-07 15:48 54.29035 8.16922 37105 ft 455 kts 46°
2026-05-07 15:49 54.33444 8.24711 37103 ft 456 kts 46°
2026-05-07 15:49 54.37854 8.32527 37107 ft 456 kts 46°
2026-05-07 15:50 54.42260 8.40362 37106 ft 457 kts 46°
2026-05-07 15:50 54.46674 8.48237 37104 ft 458 kts 46°
2026-05-07 15:51 54.51087 8.56138 37106 ft 458 kts 46°
2026-05-07 15:51 54.55502 8.64067 37099 ft 459 kts 46°
2026-05-07 15:52 54.59913 8.72015 37106 ft 459 kts 46°
2026-05-07 15:52 54.64325 8.79994 37107 ft 459 kts 46°
2026-05-07 15:53 54.68732 8.87989 37106 ft 459 kts 46°
2026-05-07 15:53 54.73137 8.96007 37103 ft 459 kts 46°
2026-05-07 15:54 54.77532 9.04036 37102 ft 459 kts 46°
2026-05-07 15:54 54.81918 9.12074 37104 ft 459 kts 46°
2026-05-07 15:55 54.86280 9.20132 37100 ft 458 kts 48°
2026-05-07 15:55 54.90301 9.28714 37105 ft 458 kts 52°
2026-05-07 15:56 54.94150 9.37536 37103 ft 458 kts 52°
2026-05-07 15:56 54.98007 9.46345 37124 ft 458 kts 52°
2026-05-07 15:57 55.01896 9.55136 37130 ft 458 kts 52°
2026-05-07 15:57 55.05800 9.63938 37128 ft 459 kts 52°
2026-05-07 15:58 55.09703 9.72762 37127 ft 459 kts 52°
2026-05-07 15:58 55.13602 9.81611 37128 ft 460 kts 52°
2026-05-07 15:59 55.17499 9.90490 37124 ft 460 kts 52°
2026-05-07 15:59 55.21369 9.99342 37124 ft 461 kts 52°
2026-05-07 16:00 55.25259 10.08269 37113 ft 461 kts 52°
2026-05-07 16:00 55.29170 10.17280 37115 ft 461 kts 52°
2026-05-07 16:01 55.33022 10.26185 37114 ft 461 kts 52°
2026-05-07 16:01 55.36892 10.35166 37124 ft 461 kts 52°
2026-05-07 16:02 55.40753 10.44159 37132 ft 461 kts 52°
2026-05-07 16:02 55.44612 10.53179 37129 ft 461 kts 53°
2026-05-07 16:03 55.48458 10.62202 37127 ft 461 kts 53°
2026-05-07 16:03 55.52301 10.71252 37123 ft 461 kts 53°
2026-05-07 16:04 55.56137 10.80318 37114 ft 461 kts 53°
2026-05-07 16:04 55.59967 10.89405 37114 ft 461 kts 53°
2026-05-07 16:05 55.63786 10.98498 37117 ft 461 kts 53°
2026-05-07 16:05 55.66962 11.06086 37118 ft 461 kts 53°
2026-05-07 16:06 55.70769 11.15211 37115 ft 461 kts 53°
2026-05-07 16:06 55.74574 11.24368 37114 ft 461 kts 53°
2026-05-07 16:07 55.78374 11.33547 37114 ft 461 kts 53°
2026-05-07 16:07 55.82166 11.42739 37117 ft 462 kts 53°
2026-05-07 16:08 55.85958 11.51969 37116 ft 462 kts 53°
2026-05-07 16:08 55.89753 11.61239 37118 ft 463 kts 53°
2026-05-07 16:09 55.93541 11.70528 37116 ft 464 kts 53°
2026-05-07 16:09 55.97328 11.79849 37120 ft 464 kts 53°
2026-05-07 16:10 56.01108 11.89190 37123 ft 464 kts 53°
2026-05-07 16:10 56.04886 11.98559 37123 ft 465 kts 53°
2026-05-07 16:11 56.08659 12.07954 37113 ft 465 kts 54°
2026-05-07 16:11 56.12403 12.17312 37118 ft 465 kts 54°
2026-05-07 16:12 56.16168 12.26759 37119 ft 465 kts 54°
2026-05-07 16:12 56.19921 12.36213 37119 ft 466 kts 54°
2026-05-07 16:13 56.23673 12.45701 37125 ft 466 kts 54°
2026-05-07 16:13 56.27420 12.55213 37112 ft 466 kts 54°
2026-05-07 16:14 56.31162 12.64750 37099 ft 466 kts 54°
2026-05-07 16:14 56.34898 12.74307 37097 ft 466 kts 54°
2026-05-07 16:15 56.38628 12.83889 37100 ft 467 kts 54°
2026-05-07 16:15 56.42357 12.93505 37103 ft 468 kts 54°
2026-05-07 16:16 56.46082 13.03149 37108 ft 469 kts 54°
2026-05-07 16:16 56.49808 13.12835 37113 ft 470 kts 54°
2026-05-07 16:17 56.53538 13.22568 37109 ft 471 kts 54°
2026-05-07 16:17 56.57263 13.32329 37097 ft 471 kts 54°
2026-05-07 16:18 56.60989 13.42131 37096 ft 471 kts 54°
2026-05-07 16:18 56.64699 13.51932 37092 ft 471 kts 54°
2026-05-07 16:19 56.68404 13.61761 37087 ft 471 kts 54°
2026-05-07 16:19 56.72107 13.71622 37082 ft 471 kts 54°
2026-05-07 16:20 56.75798 13.81487 37076 ft 471 kts 55°
2026-05-07 16:20 56.79460 13.91309 37071 ft 471 kts 55°
2026-05-07 16:21 56.83140 14.01213 37068 ft 471 kts 55°
2026-05-07 16:21 56.86806 14.11120 37081 ft 471 kts 54°
2026-05-07 16:22 56.90470 14.21063 37059 ft 471 kts 55°
2026-05-07 16:22 56.94124 14.31022 37056 ft 472 kts 55°
2026-05-07 16:23 56.97776 14.41016 37068 ft 472 kts 55°
2026-05-07 16:23 57.01429 14.51054 37065 ft 473 kts 55°
2026-05-07 16:24 57.05079 14.61127 37067 ft 474 kts 55°
2026-05-07 16:24 57.08726 14.71232 37069 ft 475 kts 55°
2026-05-07 16:25 57.12350 14.81316 37067 ft 476 kts 55°
2026-05-07 16:25 57.15994 14.91500 37063 ft 476 kts 55°
2026-05-07 16:26 57.19633 15.01711 37056 ft 477 kts 56°
2026-05-07 16:26 57.23269 15.11958 37070 ft 477 kts 56°
2026-05-07 16:27 57.26900 15.22235 37068 ft 478 kts 56°
2026-05-07 16:27 57.30525 15.32540 37073 ft 479 kts 55°
2026-05-07 16:28 57.34157 15.42907 37074 ft 480 kts 56°
2026-05-07 16:28 57.37778 15.53289 37082 ft 481 kts 56°
2026-05-07 16:29 57.41401 15.63722 37084 ft 481 kts 56°
2026-05-07 16:29 57.45020 15.74189 37082 ft 482 kts 56°
2026-05-07 16:30 57.48627 15.84670 37111 ft 481 kts 56°
2026-05-07 16:30 57.52227 15.95172 37100 ft 482 kts 56°
2026-05-07 16:31 57.55824 16.05712 37098 ft 482 kts 56°
2026-05-07 16:31 57.59413 16.16277 37110 ft 483 kts 56°
2026-05-07 16:32 57.62998 16.26877 37108 ft 483 kts 56°
2026-05-07 16:32 57.66576 16.37504 37106 ft 483 kts 56°
2026-05-07 16:33 57.70145 16.48151 37114 ft 484 kts 57°
2026-05-07 16:33 57.73683 16.58752 37103 ft 484 kts 57°
2026-05-07 16:34 57.77235 16.69444 37117 ft 483 kts 57°
2026-05-07 16:34 57.80778 16.80157 37117 ft 484 kts 57°
2026-05-07 16:35 57.84316 16.90903 37120 ft 484 kts 57°
2026-05-07 16:35 57.87844 17.01667 37120 ft 484 kts 57°
2026-05-07 16:36 57.91364 17.12457 37121 ft 485 kts 57°
2026-05-07 16:36 57.94880 17.23281 37117 ft 485 kts 57°
2026-05-07 16:37 57.98389 17.34136 37117 ft 485 kts 57°
2026-05-07 16:37 58.01893 17.45024 37112 ft 486 kts 57°
2026-05-07 16:38 58.05386 17.55929 37121 ft 486 kts 57°
2026-05-07 16:38 58.08878 17.66884 37121 ft 487 kts 58°
2026-05-07 16:39 58.12365 17.77871 37124 ft 488 kts 57°
2026-05-07 16:39 58.15850 17.88905 37121 ft 489 kts 58°
2026-05-07 16:40 58.19335 17.99983 37120 ft 490 kts 58°
2026-05-07 16:40 58.22805 18.11115 37123 ft 490 kts 58°
2026-05-07 16:41 58.26237 18.22209 37126 ft 491 kts 58°
2026-05-07 16:41 58.29683 18.33402 37144 ft 491 kts 58°
2026-05-07 16:42 58.33127 18.44631 37132 ft 492 kts 58°
2026-05-07 16:42 58.36565 18.55892 37125 ft 492 kts 58°
2026-05-07 16:43 58.39992 18.67175 37126 ft 492 kts 58°
2026-05-07 16:43 58.43404 18.78464 37129 ft 491 kts 58°
2026-05-07 16:44 58.46808 18.89780 37128 ft 491 kts 58°
2026-05-07 16:44 58.50203 19.01120 37130 ft 492 kts 58°
2026-05-07 16:45 58.53593 19.12499 37120 ft 492 kts 59°
2026-05-07 16:45 58.56977 19.23914 37131 ft 492 kts 59°
2026-05-07 16:46 58.60351 19.35351 37129 ft 493 kts 59°
2026-05-07 16:46 58.63719 19.46825 37129 ft 494 kts 59°
2026-05-07 16:47 58.67080 19.58333 37131 ft 494 kts 59°
2026-05-07 16:47 58.70440 19.69893 37135 ft 496 kts 59°
2026-05-07 16:48 58.73792 19.81487 37133 ft 497 kts 59°
2026-05-07 16:48 58.77142 19.93131 37121 ft 497 kts 59°
2026-05-07 16:49 58.80486 20.04813 37120 ft 498 kts 59°
2026-05-07 16:49 58.83825 20.16537 37122 ft 499 kts 59°
2026-05-07 16:50 58.87135 20.28219 37159 ft 499 kts 59°
2026-05-07 16:50 58.90463 20.40027 37144 ft 501 kts 60°
2026-05-07 16:51 58.93783 20.51865 37131 ft 501 kts 60°
2026-05-07 16:51 58.97103 20.63766 37128 ft 502 kts 60°
2026-05-07 16:52 58.99879 20.73763 37129 ft 502 kts 60°
2026-05-07 16:52 59.03179 20.85700 37102 ft 502 kts 60°
2026-05-07 16:53 59.06570 20.97556 37148 ft 502 kts 57°
2026-05-07 16:53 59.10846 21.10962 37130 ft 503 kts 56°
2026-05-07 16:54 59.13944 21.20664 37118 ft 504 kts 56°
2026-05-07 16:54 59.17595 21.32326 37122 ft 504 kts 57°
2026-05-07 16:55 59.21198 21.43952 37117 ft 505 kts 57°
2026-05-07 16:55 59.24856 21.55694 37124 ft 505 kts 56°